[[{"header":{"parameterUnit":"m.s-1","parameterCategory":1,"la1":30.2991,"la2":30.254,"lo1":-89.0895,"lo2":-89.0444,"dy":0.0017,"dx":0.0017,"nx":28,"ny":28,"refTime":"2023-07-30T21:00:00:Z","depth":0,"parameterNumber":2,"parameterNumberName":"U-component_of_WINDS"},"data":[0,0,0,0,0,0,0,0,0,0,0,0,0,0,0,0,0,0,0,0,0,0,0,0,0,0,0,0,0,0,0,0,0,0,0,0,0,0,0,0,0,0,0,0,0,0,0,0,0,0,0,0,0,0,0,0,0,0,1.1189,1.1191,0,1.1351,1.1353,1.1355,1.1406,1.1406,1.1405,1.1404,1.1571,1.1576,1.1581,0,0,0,0,0,0,0,0,0,0,0,0,0,1.0926,1.093,1.1189,1.1191,1.1193,1.1351,1.1353,1.1355,1.1407,1.1406,1.1405,1.1404,1.157,1.1576,1.1582,0,0,0,0,0,0,0,0,0,0,0,0,0,1.1059,1.0932,1.1189,1.1238,1.1244,1.135,1.1353,1.1356,1.1407,1.1406,1.1405,1.1403,1.1568,1.1575,1.1583,1.1653,0,0,1.1606,1.161,0,0,0,0,0,0,0,0,1.1051,1.1069,1.1229,1.1235,1.1242,1.1357,1.1321,1.1455,1.1407,1.1345,1.1404,1.1403,1.1501,1.1514,1.1547,1.1661,1.1668,1.1607,1.1612,1.1615,1.1617,0,0,0,0,0,0,0,1.1042,1.1062,1.1253,1.1231,1.1239,1.1252,1.127,1.1347,1.1427,1.135,1.1354,1.1373,1.1505,1.154,1.1551,1.167,1.1607,1.1614,1.1618,1.1621,1.1849,1.1851,0,0,0,0,0,0,1.1024,1.1054,1.1248,1.1258,1.1142,1.1258,1.1278,1.1321,1.1427,1.1442,1.1374,1.1375,1.1527,1.1542,1.1557,1.1646,1.1615,1.1622,1.1627,1.1848,1.185,1.1851,0,0,0,0,0,0,1.1019,1.1041,1.1242,1.1157,1.1184,1.1263,1.1312,1.1325,1.136,1.1444,1.1459,1.1394,1.1527,1.1547,1.1629,1.1653,1.1626,1.1633,1.1846,1.1849,1.185,1.1824,0,0,0,0,0,0,1.1011,1.1039,1.1066,1.1157,1.1188,1.1309,1.1314,1.1329,1.1373,1.1376,1.1468,1.1482,1.1527,1.1617,1.1636,1.1663,1.1639,1.1844,1.1847,1.185,1.1823,1.1825,1.1827,0,0,0,0,0,1.1001,1.1052,1.1067,1.109,1.1223,1.1311,1.1328,1.1379,1.1375,1.1403,1.1457,1.1479,1.1647,1.1625,1.1647,1.1676,1.1843,1.1846,1.185,1.1822,1.1825,1.1827,0,0,0,0,0,0,1.0962,1.1065,1.1083,1.1165,1.1228,1.1319,1.1356,1.138,1.1446,1.1446,1.1507,1.1527,1.1605,1.1649,1.1622,1.175,1.1746,1.1754,1.1718,1.1721,1.1722,1.171,1.1645,0,0,0,0,0,1.0962,1.1024,1.1112,1.1176,1.1207,1.1276,1.1316,1.1349,1.1418,1.1445,1.1505,1.1571,1.1639,1.1683,1.175,1.183,1.1851,1.1861,1.1863,1.1864,1.187,1.1916,1.1922,1.1862,1.1862,1.1862,0,0,1.0965,1.1029,1.1064,1.1169,1.1223,1.1286,1.1298,1.1364,1.1412,1.1456,1.1536,1.1583,1.1661,1.1742,1.1781,1.1781,1.1891,1.1868,1.1868,1.1874,1.192,1.1925,1.193,1.1864,1.1864,1.1863,0,0,1.1001,1.1056,1.1115,1.1169,1.1249,1.1295,1.1309,1.1396,1.1429,1.1511,1.1545,1.1602,1.1718,1.1772,1.1814,1.1871,1.1894,1.1892,1.1901,1.1945,1.195,1.1954,1.1974,1.1981,1.1898,1.1897,1.1897,0,1.0994,1.109,1.1143,1.1207,1.1253,1.1295,1.1356,1.1405,1.1503,1.1533,1.1533,1.1678,1.1734,1.1828,1.1842,1.1875,1.1894,1.1881,1.1945,1.195,1.1955,1.1975,1.1982,1.1897,1.1897,1.1897,1.1897,0,1.1077,1.1143,1.1181,1.1275,1.1324,1.1387,1.1449,1.1493,1.1523,1.1568,1.1652,1.172,1.1801,1.1826,1.1856,1.1925,1.1923,1.1933,1.193,1.1958,1.1978,1.1986,1.1895,1.1896,1.1896,1.1896,0,0,1.1092,1.1215,1.1228,1.1271,1.1363,1.1415,1.1479,1.1559,1.1595,1.1662,1.1717,1.1814,1.1823,1.1872,1.1908,1.1946,1.1987,1.1952,1.1954,1.1956,1.2068,1.206,1.2068,1.2003,1.2005,1.2006,1.2061,0,1.114,1.1256,1.1306,1.14,1.1461,1.1503,1.1559,1.1621,1.1666,1.1725,1.1775,1.1842,1.185,1.1879,1.1919,1.1973,1.201,1.197,1.2055,1.2058,1.2034,1.2078,1.207,1.2118,1.2069,1.2071,1.2072,0,1.1211,1.1278,1.1377,1.1462,1.149,1.1539,1.1616,1.1672,1.1744,1.1774,1.1828,1.1862,1.1932,1.1925,1.2021,1.1993,1.2031,1.2063,1.2066,1.2076,1.2066,1.2088,1.2135,1.2142,1.2084,1.2083,1.2082,0,1.1212,1.1326,1.1401,1.1436,1.1537,1.1571,1.1615,1.1686,1.173,1.1798,1.1827,1.1902,1.1943,1.2,1.2054,1.2044,1.2145,1.2143,1.2172,1.2171,1.2191,1.2189,1.2244,1.2216,1.2216,1.2216,1.2216,0,1.126,1.1319,1.1402,1.1448,1.1516,1.1573,1.1638,1.1685,1.1748,1.1804,1.1844,1.1896,1.1964,1.2024,1.2067,1.214,1.2159,1.2185,1.2195,1.2181,1.2177,1.2206,1.2204,1.2218,1.2218,1.2217,1.2217,0,1.1271,1.133,1.1414,1.1502,1.1526,1.1572,1.1648,1.1694,1.1741,1.1811,1.1831,1.1904,1.1977,1.2037,1.2133,1.2161,1.2238,1.225,1.2213,1.2219,1.2245,1.2241,1.232,1.2333,1.2296,1.2296,1.2297,0,1.1298,1.1344,1.1438,1.1478,1.1521,1.1585,1.1631,1.1689,1.1735,1.1821,1.1857,1.1933,1.1996,1.2112,1.2174,1.2247,1.2262,1.2284,1.2273,1.2257,1.2262,1.2258,1.2263,1.2285,1.2285,1.2285,1.2285,0,1.1338,1.1365,1.1429,1.1503,1.1557,1.1618,1.168,1.1711,1.1781,1.183,1.1905,1.1955,1.2053,1.2128,1.2208,1.2254,1.2281,1.2288,1.2299,1.2285,1.2261,1.2274,1.2216,1.2286,1.2286,1.2286,1.2286,1.2286,1.1358,1.1401,1.1474,1.1544,1.1597,1.1655,1.1702,1.1755,1.1819,1.1902,1.1933,1.201,1.2082,1.2192,1.2238,1.23,1.2302,1.2318,1.2322,1.2325,1.2323,1.2251,1.2315,1.2315,1.2315,1.2315,1.2315,0,1.14,1.1449,1.1513,1.1599,1.1654,1.1675,1.1746,1.1791,1.1858,1.1922,1.1984,1.207,1.2143,1.2211,1.2288,1.2324,1.2339,1.2342,1.234,1.235,1.2316,1.2299,1.2329,1.2329,1.2329,1.2329,1.2329,1.2329,1.1429,1.1503,1.1538,1.1639,1.1688,1.1763,1.1802,1.1855,1.1907,1.2001,1.2062,1.2106,1.2172,1.2254,1.2322,1.234,1.2366,1.2366,1.2388,1.2355,1.2352,1.235,1.2334,1.2372,1.2372,1.2417,1.2417,1.2417]},{"header":{"parameterUnit":"m.s-1","parameterCategory":1,"la1":30.2991,"la2":30.254,"lo1":-89.0895,"lo2":-89.0444,"dy":0.0017,"dx":0.0017,"nx":28,"ny":28,"refTime":"2023-07-30T21:00:00:Z","depth":0,"parameterNumber":3,"parameterNumberName":"V-component_of_WINDS"},"data":[0,0,0,0,0,0,0,0,0,0,0,0,0,0,0,0,0,0,0,0,0,0,0,0,0,0,0,0,0,0,0,0,0,0,0,0,0,0,0,0,0,0,0,0,0,0,0,0,0,0,0,0,0,0,0,0,0,0,2.8271,2.827,0,2.8183,2.8182,2.8181,2.8127,2.8126,2.8126,2.8126,2.803,2.8028,2.8025,0,0,0,0,0,0,0,0,0,0,0,0,0,2.8385,2.8383,2.8271,2.827,2.8269,2.8184,2.8182,2.8181,2.8127,2.8126,2.8126,2.8126,2.8031,2.8028,2.8025,0,0,0,0,0,0,0,0,0,0,0,0,0,2.832,2.8383,2.8271,2.8231,2.8227,2.8184,2.8182,2.8181,2.8127,2.8126,2.8126,2.8126,2.8032,2.8028,2.8025,2.8012,0,0,2.8014,2.8013,0,0,0,0,0,0,0,0,2.8324,2.8316,2.8238,2.8234,2.8229,2.8166,2.8187,2.8124,2.8127,2.8165,2.8126,2.8125,2.8075,2.8068,2.8052,2.8008,2.8004,2.8014,2.8012,2.801,2.8009,0,0,0,0,0,0,0,2.8328,2.8319,2.8236,2.8237,2.8232,2.8216,2.8206,2.8175,2.8123,2.8161,2.8157,2.8148,2.8072,2.8056,2.805,2.8002,2.8014,2.8011,2.8009,2.8008,2.7943,2.7943,0,0,0,0,0,0,2.834,2.8324,2.8239,2.8233,2.8277,2.8214,2.8204,2.8186,2.8123,2.8113,2.8148,2.8146,2.8062,2.8054,2.8046,2.8027,2.801,2.8007,2.8005,2.7942,2.7943,2.7943,0,0,0,0,0,0,2.8343,2.8333,2.8242,2.8277,2.8265,2.8213,2.8194,2.8185,2.8168,2.8114,2.8103,2.8141,2.8061,2.8051,2.8021,2.8023,2.8006,2.8003,2.7942,2.7942,2.7943,2.799,0,0,0,0,0,0,2.8346,2.8334,2.833,2.8278,2.8263,2.8221,2.8194,2.8183,2.8163,2.8159,2.8104,2.8095,2.806,2.8027,2.8018,2.8018,2.8,2.7942,2.7942,2.7943,2.7988,2.7992,2.7995,0,0,0,0,0,2.8351,2.8346,2.833,2.832,2.8257,2.8221,2.8213,2.8175,2.8164,2.8158,2.8123,2.8097,2.8025,2.8024,2.8014,2.8013,2.7941,2.7942,2.7943,2.7986,2.7991,2.7995,0,0,0,0,0,0,2.8397,2.8338,2.832,2.8299,2.8266,2.8212,2.8204,2.8181,2.8149,2.8146,2.8098,2.8086,2.8061,2.8034,2.8035,2.7997,2.798,2.7978,2.8016,2.8021,2.8024,2.8031,2.7997,0,0,0,0,0,2.8406,2.8383,2.8332,2.8317,2.8302,2.8257,2.8239,2.8213,2.8176,2.8161,2.8124,2.8087,2.8056,2.8037,2.8005,2.7984,2.7971,2.7978,2.7982,2.7985,2.7984,2.7971,2.7973,2.7946,2.7946,2.7946,0,0,2.8421,2.8386,2.8375,2.8326,2.8297,2.8274,2.8245,2.8221,2.8202,2.8157,2.8128,2.8099,2.8055,2.803,2.8016,2.8006,2.7989,2.7986,2.7989,2.7986,2.7972,2.7975,2.7977,2.7946,2.7946,2.7946,0,0,2.8438,2.841,2.8395,2.8368,2.8326,2.8296,2.8292,2.8242,2.8222,2.8193,2.8158,2.8134,2.8082,2.8052,2.803,2.8037,2.8011,2.8028,2.8047,2.8035,2.8037,2.8039,2.8041,2.8043,2.8028,2.8028,2.8028,0,2.8463,2.8428,2.839,2.8369,2.8348,2.8308,2.8292,2.8266,2.8215,2.8201,2.8191,2.8125,2.8092,2.806,2.8062,2.8045,2.8039,2.8034,2.804,2.8042,2.8043,2.8044,2.8046,2.803,2.803,2.803,2.8029,0,2.846,2.8437,2.8429,2.8384,2.8362,2.8344,2.8301,2.8284,2.8259,2.823,2.82,2.816,2.812,2.811,2.8085,2.8073,2.8068,2.805,2.8031,2.8048,2.8049,2.805,2.8034,2.8033,2.8032,2.8031,0,0,2.8504,2.8439,2.8437,2.8416,2.8367,2.8347,2.8326,2.8289,2.8275,2.8241,2.8222,2.8179,2.8162,2.8137,2.8108,2.8097,2.8106,2.808,2.8078,2.8086,2.8091,2.8105,2.8107,2.8088,2.8088,2.8088,2.8094,0,2.8514,2.8477,2.8442,2.8417,2.8394,2.8356,2.8338,2.8305,2.8277,2.8252,2.822,2.8191,2.817,2.8155,2.8143,2.8108,2.8106,2.8106,2.8068,2.8068,2.8081,2.8107,2.8122,2.813,2.8095,2.8095,2.8095,0,2.852,2.8491,2.8464,2.8419,2.8408,2.8392,2.8356,2.8333,2.8294,2.8275,2.8248,2.8218,2.8193,2.8177,2.8141,2.8142,2.8124,2.8105,2.8104,2.8099,2.8082,2.8103,2.8132,2.8133,2.8095,2.8095,2.8095,0,2.8555,2.8509,2.8487,2.847,2.8416,2.8406,2.8382,2.8344,2.8324,2.8291,2.8278,2.8242,2.8222,2.8194,2.8155,2.8147,2.8123,2.8104,2.8105,2.8106,2.8101,2.8102,2.8128,2.809,2.809,2.809,2.809,0,2.857,2.8555,2.8502,2.8489,2.8471,2.843,2.8413,2.8386,2.8352,2.8331,2.8295,2.8276,2.8225,2.82,2.8169,2.8143,2.8134,2.8117,2.8109,2.812,2.8123,2.8108,2.8106,2.809,2.809,2.809,2.809,0,2.8606,2.857,2.8544,2.8495,2.8483,2.8472,2.8429,2.8414,2.8384,2.8359,2.835,2.8303,2.8271,2.8229,2.8183,2.8163,2.8141,2.8128,2.8155,2.815,2.8154,2.8154,2.8171,2.8171,2.8134,2.8134,2.8134,0,2.8618,2.8606,2.8557,2.8542,2.8521,2.8496,2.8477,2.8436,2.8417,2.8373,2.8362,2.8328,2.8299,2.825,2.821,2.8175,2.8161,2.8169,2.8155,2.8167,2.8161,2.8163,2.8161,2.8173,2.8173,2.8174,2.8174,0,2.8643,2.8626,2.8601,2.8569,2.8547,2.852,2.849,2.8479,2.8432,2.8412,2.838,2.8358,2.8313,2.8279,2.8239,2.8212,2.8185,2.8179,2.8178,2.8189,2.8205,2.8197,2.8165,2.8179,2.8178,2.8178,2.8178,2.8178,2.8667,2.8655,2.862,2.8592,2.8566,2.854,2.8524,2.8493,2.8467,2.8429,2.8405,2.8375,2.8336,2.828,2.8255,2.8229,2.8218,2.8216,2.8215,2.8215,2.8219,2.821,2.8221,2.8221,2.8221,2.822,2.822,0,2.8691,2.8666,2.8642,2.8603,2.8582,2.856,2.8527,2.8509,2.8484,2.8451,2.8424,2.8387,2.8355,2.8313,2.8277,2.8265,2.8251,2.8256,2.8257,2.8251,2.823,2.8236,2.8268,2.8268,2.8268,2.8268,2.8268,2.8268,2.8701,2.868,2.8659,2.8624,2.8599,2.857,2.8553,2.8528,2.8502,2.8464,2.8438,2.8412,2.8375,2.8336,2.8305,2.8293,2.8282,2.8291,2.8276,2.8257,2.8253,2.8249,2.8253,2.8289,2.8289,2.8298,2.8299,2.8299]}]]